Terug naar catalogus

TIANMU-1 17

ActiefWeerSSO
NORAD 58702·PAYLOAD·🇨🇳 China

Gelanceerd Jan 5, 2024 vanaf Jiuquan Satellite Launch Center

Loading…

Volgende Passages (komende 24 uur)

TLE

VersSource: Space-Track

Epoch: Sep 14, 2026, 23:18 UTC

1 58702U 24004C   26257.97103365  .00004960  00000-0  18680-3 0  9993
2 58702  97.4648  83.9014 0006534  50.9175 309.2645 15.27548551149479

Volg TIANMU-1 17 in realtime met AllMySat

Download on the App Store